User: anonymous   Login
Location: Unspecified
(0.0000°N, 0.0000°E)
Time: 21:21:21
(UTC+00:00)
Language:

TBA - TO BE ASSIGNED - Orbit

View from above orbital plane
View from above orbital plane
View from above satellite
View from above satellite

Ground track
Ground track

The orbit is defined by the following mean orbital elements,

1 68850U          26145.45698120 +.00000000 +00000-0 +12848-2 0 00008
2 68850  97.2841 160.0490 0000423  47.4335 312.6952 15.49246133    01
Epoch (UTC): 25 May 2026 10:58:03
Eccentricity: 0.0000423
inclination: 97.2841°
perigee height: 419 km
apogee height: 419 km
right ascension of ascending node: 160.0490°
argument of perigee: 47.4335°
revolutions per day: 15.49246133
mean anomaly at epoch: 312.6952°

The dashed part of the orbit path shows where the satellite is in the earth's shadow,  

DLR